Regional Weather Roundup
Issued by NWS

Home | Current Version | Previous Version | Text Only | Print | Product List | Glossary Off
Versions: 1 2 3 4 5 6 7 8 9 10 11 12 13 14 15 16 17 18 19 20 21 22 23 24 25 26 27 28 29 30 31 32 33 34 35 36 37 38 39 40 41 42 43 44 45 46 47 48 49 50

627
ASUS43 KDTX 211401
RWRMI
MICHIGAN HOURLY REGIONAL WEATHER ROUNDUP
NATIONAL WEATHER SERVICE DETROIT/PONTIAC MI
1000 AM EDT THU MAY 21 2015

NOTE: "FAIR" INDICATES FEW OR NO CLOUDS BELOW 12,000 FEET WITH NO
SIGNIFICANT WEATHER AND/OR OBSTRUCTION TO VISIBILITY.

MIZ047>049-052>055-059>063-066>070-074>076-081>083-211500-
SOUTHEAST LOWER MICHIGAN

CITY           SKY/WX    TMP DP  RH WIND       PRES   REMARKS
ADRIAN         CLOUDY    52  37  56 NW6       30.06S
ALMA           SUNNY     54  40  59 SW9       30.01F
ANN ARBOR      CLOUDY    53  36  52 W9        30.04R
BAD AXE        SUNNY     54  36  50 W9        29.98S
CARO           MOSUNNY   55  39  56 CALM      29.99S
DETROIT CITY   PTSUNNY   54  33  45 W6        30.03S
DETROIT        CLOUDY    56  38  50 W7        30.04S
FLINT          PTSUNNY   57  36  45 W14       30.02F
GROSSE ILE     CLOUDY    54  37  54 W6        30.03S
HILLSDALE      CLOUDY    49  35  58 W7        30.06R
HOWELL         CLOUDY    51  34  51 W7        30.03S

CITY           SKY/WX    TMP DP  RH WIND       PRES   REMARKS
JACKSON        CLOUDY    50  36  58 W8        30.05S
LAMBERTVILLE   CLOUDY    52  41  66 NW5       30.06R
LANSING        PTSUNNY   51  36  56 W9        30.04S
LAPEER         FAIR      54  34  47 W8        30.01S
MASON          CLOUDY    48  34  59 W5        30.04S
MONROE         CLOUDY    54  39  58 W6        30.03S
MT. CLEMENS    MOSUNNY   58  35  43 SW10      29.99S
PONTIAC        PTSUNNY   53  34  48 W10       30.01S
PORT HOPE        N/A     56  38  50 W8G18     29.95F
PORT HURON     SUNNY     55  36  47 W5        30.00S
TRI CITIES     SUNNY     55  38  52 SW12      30.00F
MIDLAND        FAIR      56  37  49 SW8       29.99S
TROY           MOSUNNY   56  33  42 NW8       30.03F
SAGINAW HB     MOSUNNY   55  37  50 SW10      29.99F
$$
MIZ043>046-050>051-056>058-064>065-071>073-077>080-211500-
SOUTHWEST LOWER MICHIGAN

CITY           SKY/WX    TMP DP  RH WIND       PRES   REMARKS
BATTLE CREEK   CLOUDY    48  39  71 W8        30.07R
BENTON HARBOR  CLOUDY    46  43  89 W9        30.10R
BIG RAPIDS     MOSUNNY   55  34  45 W8        30.00F
COLDWATER      CLOUDY    48  38  68 W5        30.07S
FREMONT        FAIR      53  38  57 W9        30.03S
HOLLAND        CLOUDY    48  41  76 W10       30.08R
GRAND RAPIDS   PTSUNNY   50  42  74 W10       30.05S
IONIA          FAIR      51  39  64 W10       30.03S
KALAMAZOO      CLOUDY    49  40  71 W10       30.08S
LUDINGTON      SUNNY     51  40  67 W7        30.02F
MARSHALL       CLOUDY    49  39  67 W7        30.06R
MOUNT PLEASANT SUNNY     54  38  54 SW8       29.99F
MUSKEGON       PTSUNNY   49  40  71 W8        30.06S
SOUTH HAVEN    CLOUDY    46  42  85 W5        30.09R
$$
MIZ016>042-211500-
NORTHERN LOWER MICHIGAN

CITY           SKY/WX    TMP DP  RH WIND       PRES   REMARKS
ALPENA         SUNNY     58  35  42 W7        29.91F
BEAVER ISLAND  SUNNY     50  36  59 W14       29.92S
BELLAIRE       SUNNY     54  36  50 W7        29.96R
CADILLAC       SUNNY     55  37  49 SW9       29.97S
CHARLEVOIX     SUNNY     54  36  50 SW12G18   29.96F
FRANKFORT      SUNNY     52  33  48 W7        29.98F
GAYLORD        SUNNY     55  33  43 W13       29.93S
HARBOR SPRINGS SUNNY     52  36  54 SW8       29.92F
HOUGHTON LAKE  SUNNY     53  37  54 W7        29.96F
MANISTEE       SUNNY     50  36  57 W9        30.02S
OSCODA         SUNNY     58  37  46 W8        29.93F
PELLSTON       SUNNY     56  35  45 SW10      29.91F
ROGERS CITY    MOSUNNY   59  36  41 W9        29.91S
TRAVERSE CITY  MOSUNNY   57  37  47 W8G16     29.96S
$$
MIZ007>008-015-211500-
EASTERN UPPER MICHIGAN

CITY           SKY/WX    TMP DP  RH WIND       PRES   REMARKS
KINROSS        MOSUNNY   54  39  58 SW5       29.86F
NEWBERRY       CLOUDY    48  37  66 W6        29.88S
S. S. MARIE    PTSUNNY   51  40  65 CALM      29.85F
$$
MIZ004>006-011>014-085-211500-
CENTRAL UPPER MICHIGAN

CITY           SKY/WX    TMP DP  RH WIND       PRES   REMARKS
MANISTIQUE     PTSUNNY   55  34  46 W9        29.89S
ESCANABA       PTSUNNY   54  36  50 N6        29.92R
MENOMINEE      SUNNY     55  34  44 W7        29.94F
SAWYER-GWINN   MOSUNNY   48  36  61 NE10G16   29.91S
$$
MIZ001>003-009>011-084-211500-
WESTERN UPPER MICHIGAN

CITY           SKY/WX    TMP DP  RH WIND       PRES   REMARKS
IRON MOUNTAIN  PTSUNNY   54  34  46 W6        29.91F
HOUGHTON       SUNNY     52  31  44 NE12      29.95R
COPPER HARBOR    N/A     44  34  67 N5        29.95R
IRONWOOD       SUNNY     55  36  47 N13       29.93S
$$

ABBREVIATIONS USED IN REMARKS
   TC - TEMPERATURE IN CELSIUS
  WCI - WIND CHILL INDEX
   HX - HEAT INDEX
  VSB - VISIBILITY




USA.gov is the U.S. government's official web portal to all federal, state and local government web resources and services.